Regional Weather Roundup
Issued by NWS Charleston, SC

Current Version | Previous Version | Graphics & Text | Print | Product List | Glossary On
Versions: 1 2 3 4 5 6 7 8 9 10 11 12 13 14 15 16 17 18 19 20 21 22 23 24 25 26 27 28 29 30 31 32 33 34 35 36 37 38 39 40 41 42 43 44 45 46 47 48 49 50
569
ASUS42 KCHS 261027
RWRCHS

REGIONAL WEATHER ROUNDUP
NATIONAL WEATHER SERVICE CHARLESTON SC
600 AM EDT MON JUN 26 2017

NOTE: "FAIR" INDICATES FEW OR NO CLOUDS BELOW 12,000 FEET WITH NO
SIGNIFICANT WEATHER AND/OR OBSTRUCTIONS TO VISIBILITY.

NOT ALL STATIONS ARE QUALITY CONTROLLED. USE DATA WITH CAUTION...
ESPECIALLY DEWPOINT OBSERVATIONS.

SCZ027-030-031-034>040-042>050-261100-
...SOUTHEAST SOUTH CAROLINA...

CITY           SKY/WX    TMP DP  RH WIND       PRES   REMARKS
N CHARLESTON   CLOUDY    73  72  96 N6        30.05R
WATERFRONT PRK   N/A     76  74  93 VRB2      30.02S
JOHNS ISLAND   FAIR      75  73  94 CALM      30.05R
PINOPOLIS        N/A     79  73  83 NE10      29.98S
MONCKS CORNER  FAIR      72  72 100 N6        30.06R
SUMMERVILLE    CLOUDY    72  72 100 N3        30.07R FOG
BEAUFORT MCAS  PTCLDY    74  74 100 CALM      30.05R
BEAUFORT ARPT  FAIR      73  72  94 N5        30.05S
HILTON HEAD IS NOT AVBL
WALTERBORO     FOG       70  70 100 CALM      30.07R VSB 1/2
ALLENDALE      FAIR      72  72 100 CALM      30.06S

...SOUTHERN MIDLANDS AND PEE DEE...

CITY           SKY/WX    TMP DP  RH WIND       PRES   REMARKS
GEORGETOWN     PTSUNNY   72  72 100 N3        30.07R
KINGSTREE      PTSUNNY   70  64  83 N3        30.08R
ORANGEBURG     CLOUDY    72  67  84 N6        30.08R
BARNWELL       PTSUNNY   72  68  88 N5        30.08S
AIKEN          CLOUDY    68  63  83 N7        30.14R
MANNING        PTSUNNY   72  70  94 N15       30.08R
COLUMBIA       PTCLDY    72  64  76 N3        30.09R
SUMTER         CLOUDY    72  64  75 N6        30.07R
FLORENCE       MOCLDY    73  63  70 N9        30.09R
MYRTLE BEACH   MOCLDY    73  70  88 N12       30.06S
N MYRTLE BEACH PTCLDY    72  69  90 NE7       30.06R

$$

GAZ063-065-086>088-099>101-113>116-118-119-134>141-150-261100-
...SOUTHEAST GEORGIA...

CITY           SKY/WX    TMP DP  RH WIND       PRES   REMARKS
SAVANNAH ARPT  CLOUDY    75  73  93 CALM      30.06S
HUNTER AAF     MOCLDY    75  74  97 CALM      30.03S
FORT STEWART   CLOUDY    74  73  95 CALM      30.03S
STATESBORO     CLOUDY    76  32  19 CALM      30.07R
SYLVANIA         N/A     75  75 100 CALM      30.08R
CLAXTON        CLOUDY    73  73  98 CALM      30.07R

...CSRA...CENTRAL AND FAR SOUTHEAST GEORGIA...

CITY           SKY/WX    TMP DP  RH WIND       PRES   REMARKS
THOMSON        MOCLDY    68  62  82 NE3       30.17R
AUGUSTA-BUSH   MOCLDY    74  67  78 N6        30.08R
AUGUSTA-DANIEL MOCLDY    73  61  65 N8        30.10R
SWAINSBORO     FAIR      72  72 100 E5        30.08R
VIDALIA        CLOUDY    73  72  94 CALM      30.07S
EASTMAN        FAIR      67  67 100 CALM      30.11R
HAZLEHURST       N/A     72  72 100 CALM      30.07R
ALMA           CLOUDY    74  72  93 CALM      30.06S
WAYCROSS       CLOUDY    76  76 100 SW3       30.07S
JESUP          CLOUDY    73  72  94 CALM      30.07R FOG
BAXLEY         FAIR      73  73 100 CALM      30.07R FOG
BRUNSWICK      CLOUDY    73  73 100 W3        30.07S
SAINT SIMONS   CLOUDY    77  74  90 NW3       30.06R

$$

SCZ027-028-034-036>038-045-046-048>050-GAZ119-141-261100-
...LAKE AND SUPPLEMENTAL COASTAL OBSERVATIONS...

STATION/POSITION TIME  TEMP    WIND        PRES    WAVE   SWELL
                       AIR SEA DIR/SP/G            HT/PER HT/PER/DIR
                 (UTC) (F)     (DEG/KT/KT) (MB)    (FT/S) (FT/S/D)
WINYAH BAY       0945   74     360/  2     1017.0S
LAKE MURRAY      1020   70     360/  2/  7 1018.6R
ACE BASIN NERRS  0945   74        CALM     1018.0S
FORT PULASKI     1000   76 84  330/  5/  6 1018.0
SAPELO ISLAND    1000   76        CALM     1018.0

$$

ANZ835-935-AMZ111-154-330-350-352-354-370-450-454-472-261100-
...C-MAN AND BUOY OBSERVATIONS...

STATION/POSITION TIME  TEMP    WIND        PRES    WAVE   SWELL
                       AIR SEA DIR/SP/G            HT/PER HT/PER/DIR
                 (UTC) (F)     (DEG/KT/KT) (MB)    (FT/S) (FT/S/D)
BUOY 41004       1010   78 81  290/  6/  8 1016.6
BUOY 41008       0950   79 82  290/ 10/ 12 1017.3R   2/ 8   2/ 90/ 8
FOLLY BEACH CMAN 1000   75     340/  3/  5 1017.8R
CAPERS NEARSHORE 1008   81 83   10/  8/ 10 1017.1R
FRIPP NEARSHORE  1008   78 83   10/ 10/ 14 1017.2R


STATION/POSITION TIME  TEMP    WIND        PRES    WAVE   SWELL
                       AIR SEA DIR/SP/G            HT/PER HT/PER/DIR
                 (UTC) (F)     (DEG/KT/KT) (MB)    (FT/S) (FT/S/D)
5E ST. MARYS GA  1000      80                N/A     2/ 8
FRYING PAN BUOY  1010   74 80  330/  2/  4 1017.9
BUOY 41025       0950   79 79  350/ 10/ 12 1016.9F   2/ 7   2/170/ 7
CAPE LOOKOUT NC  1000   76     360/ 10/ 12 1017.4R
BUOY 41002       0950   80 80  190/ 10/ 12 1018.0F   3/ 6   3/230/ 6
BUOY 41010       1010   82 83  170/ 14/ 17 1017.5
ST AUGUSTINE FL  1000   74 76  270/  5/  6 1018.2R


$$




USA.gov is the U.S. government's official web portal to all federal, state and local government web resources and services.